Regional Weather Roundup
Issued by NWS Cleveland, OH

Home | Current Version | Previous Version | Text Only | Print | Product List | Glossary Off
Versions: 1 2 3 4 5 6 7 8 9 10 11 12 13 14 15 16 17 18 19 20 21 22 23 24 25 26 27 28 29 30 31 32 33 34 35 36 37 38 39 40 41 42 43 44 45 46 47 48 49 50

722
ASUS41 KCLE 240002
RWRCLE
OHIO REGIONAL WEATHER ROUNDUP
NATIONAL WEATHER SERVICE CLEVELAND, OH
700 PM EST TUE JAN 23 2018

NOTE: "FAIR" INDICATES FEW OR NO CLOUDS BELOW 12,000 FEET WITH NO
SIGNIFICANT WEATHER AND/OR OBSTRUCTIONS TO VISIBILITY.

OHZ001>008-015>018-024>027-034-035-043-044-240100-
   NORTHWEST OHIO

CITY           SKY/WX    TMP DP  RH WIND       PRES   REMARKS
DEFIANCE       CLOUDY    32  24  72 W12G21    29.95R WCI  23
FINDLAY        CLOUDY    33  27  78 W22G31    29.92R WCI  21
TOLEDO EXPRESS CLOUDY    33  27  78 W22G30    29.90R WCI  21
TOLEDO EXEC    CLOUDY    34  26  72 W26G33    29.90R WCI  21
LIMA           CLOUDY    32  30  92 W18G26    29.94R WCI  20
$$

OHZ009>014-019>023-028>033-038-089-240100-
   NORTHEAST OHIO

CITY           SKY/WX    TMP DP  RH WIND       PRES   REMARKS
CLE-HOPKINS    FLURRIES  35  31  85 W20G29    29.87R WCI  24
CLE-LAKEFRONT  CLOUDY    34  30  85 W21G30    29.84R WCI  22
CUY CO. ARPT   CLOUDY    36  32  87 W23G35    29.83R
LORAIN-ELYRIA  CLOUDY    34  25  69 W18G28    29.87R WCI  23
ASHTABULA      CLOUDY    34  28  79 W28G37    29.80R WCI  21
AKRON-CANTON   LGT SNOW  35  31  85 W14G25    29.84R WCI  26
WOOSTER        CLOUDY    34  30  85 W26G38    29.87R WCI  21
MANSFIELD      CLOUDY    33  29  85 W18G33    29.88R WCI  22
YOUNGSTOWN     FLURRIES  35  32  88 W16G26    29.80R WCI  25
$$

OHZ042-051>053-060>062-070>072-077>081-240100-
  SOUTHWEST OHIO

CITY           SKY/WX    TMP DP  RH WIND       PRES   REMARKS
CINC-COVINGTON DRIZZLE   37  33  85 W12G21    30.02R
CINC-LUNKEN    CLOUDY    39  32  76 W16G24    30.04R
HAMILTON       CLOUDY    38  34  85 SW8       30.03R
DAYTON         CLOUDY    35  33  92 W13       29.98R WCI  26
WRIGHT-PAT AFB NOT AVBL
DAYTON GENERAL CLOUDY    36  33  89 SW7       29.99R
WILMINGTON     CLOUDY    35  34  96 W13       29.99R WCI  26
$$

OHZ036-037-039>041-045>050-054>059-063>069-073>076-082>088-240100-
  CENTRAL AND SOUTHEAST OHIO

CITY           SKY/WX    TMP DP  RH WIND       PRES   REMARKS
COLUMBUS       LGT RAIN  37  32  82 W18       29.95R
OSU AIRPORT    CLOUDY    36  33  89 W16G24    29.95R
BOLTON FIELD   CLOUDY    36  32  87 W10G31    29.96R
RICKENBACK AFB NOT AVBL
NEWARK         CLOUDY    37  32  82 W17       29.93R
MARION         CLOUDY    33  28  81 W14G25    29.93R WCI  23
LANCASTER      LGT RAIN  37  34  89 W14G22    29.96R
ZANESVILLE     CLOUDY    39  31  72 W16G28    29.92R
NEW PHILLY     NOT AVBL
$$




USA.gov is the U.S. government's official web portal to all federal, state and local government web resources and services.